Regional Weather Roundup
Issued by NWS Boston, MA

Current Version | Previous Version | Text Only | Print | Product List | Glossary Off
Versions: 1 2 3 4 5 6 7 8 9 10 11 12 13 14 15 16 17 18 19 20 21 22 23 24 25 26 27 28 29 30 31 32 33 34 35 36 37 38 39 40 41 42 43 44 45 46 47 48 49 50
627 ASUS41 KBOX 161010 RWRBOX REGIONAL WEATHER ROUNDUP NATIONAL WEATHER SERVICE BOSTON/NORTON MA 600 AM EDT THU AUG 16 2018 NOTE: "FAIR" INDICATES FEW OR NO CLOUDS BELOW 12,000 FEET WITH NO SIGNIFICANT WEATHER AND/OR OBSTRUCTIONS TO VISIBILITY. MAZALL-161100- EASTERN MASSACHUSETTS CITY SKY/WX TMP DP RH WIND PRES REMARKS BOSTON NOT AVBL BEVERLY FAIR 72 69 90 NW7 29.94R LAWRENCE FAIR 73 67 81 CALM 29.97R BEDFORD FAIR 68 66 93 SW3 29.95R BLUE HILL N/A 70 68 93 W12 29.97R NORWOOD FAIR 69 66 90 CALM 29.95R FOG MARSHFIELD FAIR 72 70 94 W5 29.94R PLYMOUTH FAIR 71 68 90 W5 29.96R TAUNTON FAIR 67 65 93 CALM 29.95R NEW BEDFORD FAIR 69 69 100 CALM 29.95R $$ MAZALL-161100- CAPE COD AND THE ISLANDS CITY SKY/WX TMP DP RH WIND PRES REMARKS FALMOUTH FAIR 72 68 88 CALM 29.97R HYANNIS FAIR 74 70 87 W5 29.94R CHATHAM FAIR 71 69 93 W3 29.95R PROVINCETOWN FAIR 70 68 93 W6 29.95R NANTUCKET FAIR 72 70 93 W9 29.96R MARTHAS VNYRD FAIR 72 70 93 W5 29.96R $$ MAZALL-161100- CENTRAL AND WESTERN MASSACHUSETTS CITY SKY/WX TMP DP RH WIND PRES REMARKS WORCESTER FAIR 70 67 90 W12 30.00R FITCHBURG FAIR 68 67 96 CALM 29.97R ORANGE FOG 67 65 93 CALM 30.00R VSB 1/2 SPRINGFIELD FAIR 69 67 93 CALM 29.98R WESTFIELD FAIR 67 67 100 CALM 29.99R FOG NORTH ADAMS CLOUDY 72 66 81 W9 30.00R PITTSFIELD FAIR 70 64 81 CALM 30.03R $$ RIZALL-161100- RHODE ISLAND CITY SKY/WX TMP DP RH WIND PRES REMARKS PROVIDENCE FAIR 75 68 78 W9 29.97R NEWPORT FAIR 73 68 84 NW3 29.97R BLOCK ISLAND FAIR 73 70 90 W7 29.99R SMITHFIELD FAIR 71 67 87 W7 29.98R WESTERLY FAIR 73 71 93 CALM 29.99R $$ CTZALL-161100- CONNECTICUT CITY SKY/WX TMP DP RH WIND PRES REMARKS BRADLEY INTL FAIR 71 67 87 CALM 29.99R HARTFORD FAIR 70 69 97 S3 29.98R BRIDGEPORT FAIR 73 69 87 CALM 29.99R DANBURY FAIR 67 67 100 CALM 30.03R GROTON FAIR 73 69 87 CALM 29.98R NEW HAVEN FAIR 74 70 87 NW5 29.99R CHESTER N/A 70 68 94 CALM 30.01R MERIDEN FAIR 67 66 97 CALM 30.00R FOG WILLIMANTIC FAIR 68 68 100 CALM 29.99R OXFORD FAIR 68 67 96 N3 30.03R FOG $$ MEZ002-015-021-024-NHZ003-005-008-011-012-014-VTZ005-008-161100- NORTHERN NEW ENGLAND CITY SKY/WX TMP DP RH WIND PRES REMARKS PORTLAND ME CLOUDY 71 68 90 W3 29.93R BANGOR ME FAIR 66 64 93 W6 29.91R FOG CONCORD NH FAIR 66 65 96 CALM 29.95R MANCHESTER NH FAIR 71 68 90 S3 29.94R NASHUA NH FAIR 68 68 100 CALM 29.96R PORTSMOUTH NH MOCLDY 71 67 88 W5 29.93R JAFFREY NH FAIR 69 68 96 S5 30.01R KEENE NH FOG N/A N/A N/A CALM 29.98R VSB<1/4 BURLINGTON VT CLOUDY 69 65 86 CALM 29.98R MT. WASHINGTON FOG 52 52 100 W39G46 N/A VSB 0 $$ NYZ052-076-161100- EASTERN NEW YORK CITY SKY/WX TMP DP RH WIND PRES REMARKS ALBANY FAIR 71 66 84 CALM 30.00R NEW YORK CITY FAIR 79 69 71 NW8 30.01R $$ ANZALL-161100- MARINE OBSERVATIONS STATION/POSITION TIME TEMP WIND PRES VSBY WAVE AIR SEA DIR/SP/G HT/PER (UTC) (F) (DEG/KT/KT) (MB) (MI) (FT/S) BOSTON BUOY 0950 72 70 250/ 10/ 10 1012.9R 1/ 8 BUZZARDS BAY 0900 74 270/ 14/ 16 1014.6R NANTUCKET SOUND 0950 76 77 280/ 12/ 14 1014.0R 1/ 3 MASS BAY-STELLWA 0904 70 68 250/ 4/ 4 1011.4R 1 7/8 1/ 8 ISLE OF SHOALS 0900 73 270/ 13/ 13 1012.1R S OF BLOCK IS 0943 77 N/A 3/ 7 $$ ......................KEY......................... SKY/WX - SKY CONDITION/PRESENT WEATHER TMP - TEMPERATURE IN FAHRENHEIT DWPT - DEWPOINT IN FAHRENHEIT RH - RELATIVE HUMIDITY IN PERCENT WIND - DIRECTION AND SPEED IN MPH PRES - MEAN SEA LEVEL PRESSURE IN INCHES OF HG WCI - WIND CHILL INDEX VSB - VISIBILITY IN MILES HX - HEAT INDEX TC - TEMPERATURE IN CELSIUS VRB - VARIABLE WIND DIRECTION N/A - NOT AVAILABLE

USA.gov is the U.S. government's official web portal to all federal, state and local government web resources and services.